Weather History for Buckland, AK

Change the Weather History Date:

Friday, June 14, 2013

  Actual Average (PASK) Record (PASK)
Temperature  
Mean Temperature 17 °C -  
Max Temperature 23 °C 13 °C 22 °C (2013)
Min Temperature 10 °C 4 °C 0 °C (2000)
Degree Days  
Heating Degree Days 4    
Growing Degree Days 12 (Base 50)    
Moisture  
Dew Point 7 °C    
Average Humidity 52    
Maximum Humidity 67    
Minimum Humidity 38    
Precipitation  
Precipitation 0.00 mm - - ()
Sea Level Pressure  
Sea Level Pressure 1019 hPa    
Wind  
Wind Speed 10 km/h (South)    
Max Wind Speed 26 km/h    
Max Gust Speed 29 km/h    
Visibility 16 kilometers    
Events      
Averages and records for this station are not official NWS values.
T = Trace of Precipitation, MM = Missing Value Source: NWS Daily Summary

Daily Weather History Graph

Daily Weather History Graph

Search for Another Location

Airport:

Trip Planner

Search our weather history database for the weather conditions in past years. The results will help you decide how hot, cold, wet, or windy it might be!

Date:

Astronomy

Jun. 14, 2013 Rise Set
Actual Time 3:17 AM AKDT 2:12 AM AKDT
Civil Twilight Sun does not rise Sun does not rise
Nautical Twilight Sun does not rise Sun does not rise
Astronomical Twilight Sun does not rise Sun does not rise
Moon 12:26 PM AKDT (6/14) 2:12 AM AKDT (6/14)
Length of Visible Light 24h 00m
Length of Day
22h 55m
Waxing Crescent, 31% of the Moon is Illuminated
Jun 14
Waxing Crescent
Jun 16
First Quarter
Jun 23
Full
Jun 29
Last Quarter
Jul 7
New

Hourly Weather History & Observations

Time (AKDT) Temp. Dew Point Humidity Pressure Visibility Wind Dir Wind Speed Gust Speed Precip Events Conditions
12:16 AM 21.0 °C 7.0 °C 40% 1016.1 hPa 16.1 km Calm Calm - N/A   Clear
12:36 AM 17.0 °C 6.0 °C 48% 1016.5 hPa 16.1 km ENE 7.4 km/h / 2.1 m/s - N/A   Clear
12:56 AM 17.0 °C 6.0 °C 48% 1016.8 hPa 8.0 km ESE 7.4 km/h / 2.1 m/s - N/A   Clear
1:16 AM 15.0 °C 6.0 °C 55% 1016.8 hPa 16.1 km East 5.6 km/h / 1.5 m/s - N/A   Clear
1:36 AM 14.0 °C 5.0 °C 55% 1016.8 hPa 16.1 km ESE 9.3 km/h / 2.6 m/s - N/A   Clear
1:56 AM 13.0 °C 5.0 °C 58% 1017.2 hPa 16.1 km ESE 9.3 km/h / 2.6 m/s - N/A   Clear
2:16 AM 13.0 °C 4.0 °C 54% 1017.2 hPa 16.1 km SE 13.0 km/h / 3.6 m/s - N/A   Clear
2:36 AM 12.0 °C 4.0 °C 58% 1017.2 hPa 16.1 km Calm Calm - N/A   Clear
2:56 AM 12.0 °C 4.0 °C 58% 1017.5 hPa 16.1 km Calm Calm - N/A   Clear
3:16 AM 11.0 °C 4.0 °C 62% 1017.5 hPa 16.1 km SSE 7.4 km/h / 2.1 m/s - N/A   Clear
3:36 AM 12.0 °C 4.0 °C 58% 1017.5 hPa 16.1 km Calm Calm - N/A   Clear
3:56 AM 12.0 °C 3.0 °C 54% 1017.5 hPa 16.1 km East 9.3 km/h / 2.6 m/s - N/A   Clear
4:16 AM 11.0 °C 4.0 °C 62% 1017.5 hPa 16.1 km East 5.6 km/h / 1.5 m/s - N/A   Clear
4:36 AM 11.0 °C 4.0 °C 62% 1017.8 hPa 16.1 km East 11.1 km/h / 3.1 m/s - N/A   Clear
4:56 AM 10.0 °C 3.0 °C 62% 1017.8 hPa 16.1 km ENE 9.3 km/h / 2.6 m/s - N/A   Clear
5:16 AM 11.0 °C 4.0 °C 62% 1017.8 hPa 16.1 km Calm Calm - N/A   Clear
5:36 AM 11.0 °C 4.0 °C 62% 1017.8 hPa 16.1 km Calm Calm - N/A   Partly Cloudy
5:56 AM 11.0 °C 5.0 °C 67% 1018.2 hPa 16.1 km South 7.4 km/h / 2.1 m/s - N/A   Clear
6:16 AM 12.0 °C 5.0 °C 62% 1018.2 hPa 16.1 km South 7.4 km/h / 2.1 m/s - N/A   Scattered Clouds
6:36 AM 12.0 °C 6.0 °C 67% 1018.2 hPa 16.1 km SSW 7.4 km/h / 2.1 m/s - N/A   Partly Cloudy
6:56 AM 12.0 °C 5.0 °C 62% 1018.2 hPa 16.1 km SSE 5.6 km/h / 1.5 m/s - N/A   Clear
7:16 AM 13.0 °C 6.0 °C 63% 1018.2 hPa 16.1 km SSE 7.4 km/h / 2.1 m/s - N/A   Scattered Clouds
7:36 AM 14.0 °C 6.0 °C 59% 1018.2 hPa 16.1 km South 5.6 km/h / 1.5 m/s - N/A   Overcast
7:56 AM 16.0 °C 5.0 °C 48% 1017.8 hPa 16.1 km SSE 11.1 km/h / 3.1 m/s - N/A   Scattered Clouds
8:16 AM 17.0 °C 6.0 °C 48% 1017.8 hPa 16.1 km South 9.3 km/h / 2.6 m/s - N/A   Clear
8:36 AM 18.0 °C 5.0 °C 42% 1018.2 hPa 16.1 km SSE 9.3 km/h / 2.6 m/s - N/A   Clear
8:56 AM 18.0 °C 5.0 °C 42% 1018.2 hPa 16.1 km SE 11.1 km/h / 3.1 m/s - N/A   Clear
9:16 AM 17.0 °C 6.0 °C 48% 1018.2 hPa 16.1 km SSE 11.1 km/h / 3.1 m/s - N/A   Clear
9:36 AM 18.0 °C 6.0 °C 45% 1018.2 hPa 16.1 km SSE 14.8 km/h / 4.1 m/s - N/A   Clear
9:56 AM 18.0 °C 6.0 °C 45% 1018.2 hPa 16.1 km SE 16.7 km/h / 4.6 m/s - N/A   Clear
10:16 AM 19.0 °C 7.0 °C 46% 1018.2 hPa 16.1 km SE 14.8 km/h / 4.1 m/s - N/A   Clear
10:36 AM 19.0 °C 7.0 °C 46% 1018.5 hPa 16.1 km SE 11.1 km/h / 3.1 m/s - N/A   Mostly Cloudy
10:56 AM 19.0 °C 7.0 °C 46% 1018.5 hPa 16.1 km SSE 13.0 km/h / 3.6 m/s - N/A   Overcast
11:16 AM 20.0 °C 7.0 °C 43% 1018.5 hPa 16.1 km SSE 7.4 km/h / 2.1 m/s - N/A   Mostly Cloudy
11:36 AM 19.0 °C 8.0 °C 49% 1018.5 hPa 16.1 km ESE 16.7 km/h / 4.6 m/s - N/A   Mostly Cloudy
11:56 AM 20.0 °C 9.0 °C 49% 1018.5 hPa 12.9 km SE 20.4 km/h / 5.7 m/s - N/A   Scattered Clouds
12:16 PM 19.0 °C 8.0 °C 49% 1018.5 hPa 16.1 km SE 22.2 km/h / 6.2 m/s 27.8 km/h / 7.7 m/s N/A   Scattered Clouds
12:36 PM 21.0 °C 8.0 °C 43% 1018.5 hPa 16.1 km SE 18.5 km/h / 5.1 m/s - N/A   Mostly Cloudy
12:56 PM 22.0 °C 9.0 °C 43% 1018.5 hPa 16.1 km SE 13.0 km/h / 3.6 m/s - N/A   Partly Cloudy
1:16 PM 23.0 °C 8.0 °C 38% 1018.5 hPa 16.1 km SE 13.0 km/h / 3.6 m/s - N/A   Partly Cloudy
1:36 PM 23.0 °C 8.0 °C 38% 1018.5 hPa 16.1 km SSE 11.1 km/h / 3.1 m/s - N/A   Scattered Clouds
1:56 PM 22.0 °C 7.0 °C 38% 1018.8 hPa 16.1 km WSW 18.5 km/h / 5.1 m/s - N/A   Scattered Clouds
2:16 PM 19.0 °C 8.0 °C 49% 1019.2 hPa 8.0 km WSW 18.5 km/h / 5.1 m/s - N/A   Mostly Cloudy
2:36 PM 20.0 °C 9.0 °C 49% 1019.2 hPa 16.1 km SW 18.5 km/h / 5.1 m/s - N/A   Mostly Cloudy
2:56 PM 21.0 °C 9.0 °C 46% 1019.5 hPa 16.1 km WSW 18.5 km/h / 5.1 m/s - N/A   Mostly Cloudy
3:16 PM 21.0 °C 8.0 °C 43% 1019.9 hPa 16.1 km WSW 20.4 km/h / 5.7 m/s - N/A   Overcast
3:36 PM 20.0 °C 9.0 °C 49% 1019.9 hPa 16.1 km NW 22.2 km/h / 6.2 m/s 29.6 km/h / 8.2 m/s N/A   Overcast
3:56 PM 19.0 °C 8.0 °C 49% 1020.2 hPa 16.1 km NNW 18.5 km/h / 5.1 m/s - N/A   Scattered Clouds
4:16 PM 19.0 °C 8.0 °C 49% 1020.5 hPa 16.1 km NNW 16.7 km/h / 4.6 m/s - N/A   Mostly Cloudy
4:36 PM 19.0 °C 8.0 °C 49% 1020.5 hPa 16.1 km NNW 16.7 km/h / 4.6 m/s - N/A   Scattered Clouds
4:56 PM 18.0 °C 8.0 °C 52% 1020.9 hPa 16.1 km NW 13.0 km/h / 3.6 m/s - N/A   Mostly Cloudy
5:16 PM 18.0 °C 8.0 °C 52% 1020.9 hPa 16.1 km NNW 11.1 km/h / 3.1 m/s - N/A   Overcast
5:36 PM 18.0 °C 7.0 °C 49% 1020.9 hPa 16.1 km NW 14.8 km/h / 4.1 m/s - N/A   Overcast
5:56 PM 17.0 °C 7.0 °C 52% 1020.9 hPa 16.1 km WNW 16.7 km/h / 4.6 m/s - N/A   Mostly Cloudy
6:16 PM 17.0 °C 7.0 °C 52% 1020.9 hPa 16.1 km NNW 13.0 km/h / 3.6 m/s - N/A   Clear
6:36 PM 18.0 °C 7.0 °C 49% 1020.9 hPa 16.1 km WNW 14.8 km/h / 4.1 m/s - N/A   Clear
6:56 PM 17.0 °C 7.0 °C 52% 1020.9 hPa 16.1 km NW 13.0 km/h / 3.6 m/s - N/A   Clear
7:16 PM 17.0 °C 7.0 °C 52% 1021.2 hPa 16.1 km NW 13.0 km/h / 3.6 m/s - N/A   Clear
7:36 PM 17.0 °C 7.0 °C 52% 1020.9 hPa 16.1 km NW 9.3 km/h / 2.6 m/s - N/A   Clear
7:56 PM 16.0 °C 7.0 °C 55% 1020.9 hPa 16.1 km North 9.3 km/h / 2.6 m/s - N/A   Clear
8:16 PM 16.0 °C 7.0 °C 55% 1020.9 hPa 16.1 km NW 5.6 km/h / 1.5 m/s - N/A   Clear
8:36 PM 16.0 °C 7.0 °C 55% 1020.9 hPa 16.1 km NNW 7.4 km/h / 2.1 m/s - N/A   Scattered Clouds
8:56 PM 16.0 °C 7.0 °C 55% 1020.9 hPa 16.1 km Calm Calm - N/A   Mostly Cloudy
9:16 PM 16.0 °C 7.0 °C 55% 1020.9 hPa 16.1 km Calm Calm - N/A   Scattered Clouds
9:36 PM 17.0 °C 7.0 °C 52% 1021.2 hPa 16.1 km Calm Calm - N/A   Mostly Cloudy
9:56 PM 16.0 °C 7.0 °C 55% 1021.6 hPa 16.1 km SW 25.9 km/h / 7.2 m/s - N/A   Scattered Clouds
10:16 PM 16.0 °C 7.0 °C 55% 1021.6 hPa 16.1 km SSW 14.8 km/h / 4.1 m/s - N/A   Partly Cloudy
10:36 PM 16.0 °C 6.0 °C 52% 1021.6 hPa 16.1 km SSW 18.5 km/h / 5.1 m/s - N/A   Clear
10:56 PM 15.0 °C 6.0 °C 55% 1021.6 hPa 16.1 km SSW 22.2 km/h / 6.2 m/s - N/A   Mostly Cloudy
11:16 PM 14.0 °C 7.0 °C 63% 1021.9 hPa 16.1 km SW 20.4 km/h / 5.7 m/s - N/A   Scattered Clouds
11:36 PM 14.0 °C 7.0 °C 63% 1021.9 hPa 16.1 km SSW 16.7 km/h / 4.6 m/s - N/A   Partly Cloudy
11:56 PM 14.0 °C 7.0 °C 63% 1021.9 hPa 16.1 km SSW 9.3 km/h / 2.6 m/s - N/A   Partly Cloudy